Location: Góry Miechowskie
(50.3599°N, 20.1803°E)
Time: 22:13:00
(UTC+00:00)

S-56A Canister/Altair - Pass Details

Date: 19 September 2024
Orbit: 636 x 2487 km, 38.9° (Epoch: 09 October)

Event Time Altitude Azimuth Distance (km) Brightness Sun altitude
Rises 21:22:37 0° 264° (W) 3,908 11.3 -36.5°
Enters shadow 21:25:44 - 248° (WSW) 3,274 10.7 -36.7°
Reaches altitude 10° 21:25:59 10° 247° (WSW) 3,235 - -36.7°
Maximum altitude 21:31:18 19° 206° (SSW) 3,039 - -37.0°
Drops below altitude 10° 21:37:58 10° 168° (SSE) 4,188 - -37.3°
Sets 21:43:17 0° 153° (SSE) 5,532 - -37.5°
